McKinney, TX

2:10 AM CST on December 10, 2019 (GMT -0600)
Collin County Regional

Weather History for KTKI - July, 2019

Change the Weather History Date:

Monday, July 22, 2019

  Actual Average (KADS) Record (KADS)
Temperature  
Mean Temperature 83 °F -  
Max Temperature 93 °F 95 °F 107 °F (2018)
Min Temperature 73 °F 76 °F 75 °F (2007)
Cooling Degree Days 18    
Growing Degree Days 33 (Base 50)    
Moisture  
Dew Point 70 °F    
Average Humidity 66    
Maximum Humidity 91    
Minimum Humidity 50    
Precipitation  
Precipitation 0.00 in - - ()
Sea Level Pressure  
Sea Level Pressure 29.98 in    
Wind  
Wind Speed 7 mph (North)    
Max Wind Speed 23 mph    
Max Gust Speed 25 mph    
Visibility 10 miles    
Events      
Averages and records for this station are not official NWS values.
T = Trace of Precipitation, MM = Missing Value Source: NWS Daily Summary

Daily Weather History Graph

Daily Weather History Graph

Search for Another Location

Airport or City:

Astronomy

Jul. 22, 2019 Rise Set
Actual Time 6:32 AM CDT 8:32 PM CDT
Civil Twilight 6:04 AM CDT 9:00 PM CDT
Nautical Twilight 5:31 AM CDT 9:34 PM CDT
Astronomical Twilight 4:55 AM CDT 10:09 PM CDT
Moon No Moon Rise 11:36 AM CDT (7/22)
Length of Visible Light 14h 55m
Length of Day
14h 00m
Waning Gibbous, 72% of the Moon is Illuminated
Jul 22
Waning Gibbous
Jul 24
Last Quarter
Jul 31
New
Aug 7
First Quarter
Aug 15
Full

Hourly Weather History & Observations

Time (CDT) Temp. Heat Index Dew Point Humidity Pressure Visibility Wind Dir Wind Speed Gust Speed Precip Events Conditions
12:53 AM 78.1 °F - 71.1 °F 79% 29.93 in 10.0 mi Calm Calm - N/A   Clear
1:53 AM 78.1 °F - 71.1 °F 79% 29.93 in 10.0 mi Calm Calm - N/A   Clear
2:53 AM 75.0 °F - 70.0 °F 84% 29.92 in 10.0 mi South 5.8 mph - N/A   Clear
3:53 AM 75.0 °F - 70.0 °F 84% 29.92 in 10.0 mi South 5.8 mph - N/A   Clear
4:53 AM 75.0 °F - 70.0 °F 84% 29.92 in 10.0 mi Calm Calm - N/A   Clear
5:53 AM 73.9 °F - 71.1 °F 91% 29.94 in 10.0 mi SSE 4.6 mph - N/A   Partly Cloudy
6:53 AM 75.0 °F - 72.0 °F 90% 29.97 in 10.0 mi SSE 4.6 mph - N/A   Scattered Clouds
7:53 AM 79.0 °F - 73.0 °F 82% 29.99 in 10.0 mi South 5.8 mph - N/A   Mostly Cloudy
8:53 AM 84.9 °F 91.4 °F 73.0 °F 67% 30.01 in 10.0 mi WSW 8.1 mph - N/A   Clear
9:53 AM 87.1 °F 93.6 °F 72.0 °F 61% 30.00 in 10.0 mi West 10.4 mph - N/A   Clear
10:53 AM 90.0 °F 96.4 °F 71.1 °F 54% 29.99 in 10.0 mi WNW 13.8 mph - N/A   Mostly Cloudy
11:53 AM 90.0 °F 95.4 °F 70.0 °F 52% 29.99 in 10.0 mi WNW 10.4 mph - N/A   Mostly Cloudy
12:53 PM 91.0 °F 97.6 °F 71.1 °F 52% 30.00 in 10.0 mi NNW 11.5 mph 21.9 mph N/A   Scattered Clouds
1:25 PM 91.0 °F 98.2 °F 72.0 °F 53% 30.01 in 10.0 mi North 12.7 mph - N/A   Mostly Cloudy
1:53 PM 91.9 °F 100.7 °F 73.0 °F 54% 29.98 in 10.0 mi NNW 15.0 mph - N/A   Mostly Cloudy
2:53 PM 93.0 °F 101.9 °F 73.0 °F 52% 29.96 in 10.0 mi North 23.0 mph - N/A   Scattered Clouds
3:53 PM 91.9 °F 100.7 °F 73.0 °F 54% 29.97 in 10.0 mi NNE 18.4 mph 23.0 mph N/A   Scattered Clouds
4:53 PM 91.9 °F 98.4 °F 71.1 °F 50% 29.95 in 10.0 mi North 19.6 mph - N/A   Partly Cloudy
5:53 PM 89.1 °F 94.1 °F 70.0 °F 53% 29.96 in 10.0 mi North 17.3 mph 25.3 mph N/A   Mostly Cloudy
6:53 PM 87.1 °F 91.3 °F 69.1 °F 55% 29.98 in 10.0 mi North 18.4 mph 25.3 mph N/A   Mostly Cloudy
7:53 PM 84.9 °F 88.8 °F 69.1 °F 59% 30.00 in 10.0 mi North 16.1 mph - N/A   Partly Cloudy
8:53 PM 82.9 °F 86.5 °F 69.1 °F 63% 30.01 in 10.0 mi NNE 13.8 mph - N/A   Scattered Clouds
9:53 PM 81.0 °F 83.3 °F 66.9 °F 62% 30.03 in 10.0 mi NNE 12.7 mph - N/A   Clear
10:53 PM 79.0 °F - 64.0 °F 60% 30.06 in 10.0 mi NNE 8.1 mph - N/A   Clear
11:53 PM 77.0 °F - 64.9 °F 66% 30.07 in 10.0 mi North 9.2 mph - N/A   Clear